Location: Zagreb
(45.8000°N, 16.0000°E)
Time: 14:32:38
(UTC+02:00)

Transit 2A Rocket - Pass Details

Date: 13 August 2022
Orbit: 593 x 907 km, 66.7° (Epoch: 25 September)

Event Time Altitude Azimuth Distance (km) Brightness Sun altitude
Rises 05:22:29 0° 307° (NW) 2,885 7.7 -5.7°
Reaches altitude 10° 05:26:02 10° 276° (W) 2,020 6.7 -5.1°
Maximum altitude 05:27:48 12° 253° (WSW) 1,904 6.4 -4.9°
Drops below altitude 10° 05:29:37 10° 230° (SW) 2,073 6.6 -4.6°
Sets 05:33:23 0° 201° (SSW) 3,056 7.7 -4.0°
